Lafayette, IN

11:02 AM EDT on September 21, 2017 (GMT -0400)
Purdue Univ

Weather History for KLAF - March, 2013

Change the Weather History Date:

Monday, March 18, 2013

  Actual Average Record
Temperature  
Mean Temperature 32 °F 42 °F  
Max Temperature 38 °F 51 °F 81 °F (2012)
Min Temperature 26 °F 32 °F 13 °F (1964)
Degree Days  
Heating Degree Days 33 23  
Month to date heating degree days 565 481  
Since 1 July heating degree days 4900 4815  
Cooling Degree Days 0 0  
Month to date cooling degree days 0 0  
Year to date cooling degree days 0 0  
Moisture  
Dew Point 30 °F    
Average Humidity 83    
Maximum Humidity 96    
Minimum Humidity 69    
Precipitation  
Precipitation 0.03 in 0.08 in 1.24 in (1952)
Month to date precipitation 0.72 1.47  
Year to date precipitation 6.67 5.09  
Sea Level Pressure  
Sea Level Pressure 29.76 in    
Wind  
Wind Speed 13 mph (East)    
Max Wind Speed 32 mph    
Max Gust Speed 43 mph    
Visibility 7 miles    
Events Rain , Snow    
T = Trace of Precipitation, MM = Missing Value Source: NWS Daily Summary

Daily Weather History Graph

Daily Weather History Graph

Search for Another Location

Airport or City:

Trip Planner

Search our weather history database for the weather conditions in past years. The results will help you decide how hot, cold, wet, or windy it might be!

Date:

Astronomy

Mar. 18, 2013 Rise Set
Actual Time 7:54 AM EDT 7:58 PM EDT
Civil Twilight 7:26 AM EDT 8:25 PM EDT
Nautical Twilight 6:55 AM EDT 8:56 PM EDT
Astronomical Twilight 6:22 AM EDT 9:29 PM EDT
Moon 11:52 AM EDT (3/18) 1:58 AM EDT (3/18)
Length of Visible Light 12h 58m
Length of Day
12h 04m
Waxing Crescent, 40% of the Moon is Illuminated
Mar 18
Waxing Crescent
Mar 19
First Quarter
Mar 27
Full
Apr 3
Last Quarter
Apr 10
New

Hourly Weather History & Observations

Time (EDT) Temp. Windchill Dew Point Humidity Pressure Visibility Wind Dir Wind Speed Gust Speed Precip Events Conditions
12:54 AM 32.0 °F 20.5 °F 25.0 °F 75% 29.97 in 10.0 mi East 18.4 mph - N/A   Overcast
1:25 AM 32.0 °F 20.1 °F 26.6 °F 80% 29.93 in 4.0 mi East 19.6 mph 26.5 mph 0.00 in Snow Light Snow
1:54 AM 30.9 °F 19.8 °F 26.1 °F 82% 29.93 in 7.0 mi East 16.1 mph 27.6 mph 0.00 in   Overcast
2:09 AM 30.2 °F 18.5 °F 26.6 °F 86% 29.91 in 7.0 mi East 17.3 mph - 0.00 in Rain Light Freezing Rain
2:42 AM 30.2 °F 18.5 °F 26.6 °F 86% 29.88 in 7.0 mi East 17.3 mph - 0.00 in   Overcast
2:54 AM 30.9 °F 20.2 °F 26.1 °F 82% 29.91 in 7.0 mi East 15.0 mph 25.3 mph 0.00 in   Overcast
3:54 AM 30.0 °F 20.0 °F 26.1 °F 85% 29.87 in 9.0 mi East 12.7 mph - 0.00 in   Overcast
4:01 AM 30.2 °F 18.5 °F 26.6 °F 86% 29.84 in 8.0 mi East 17.3 mph - N/A   Overcast
4:54 AM 30.0 °F 19.1 °F 27.0 °F 88% 29.81 in 6.0 mi East 15.0 mph - 0.00 in Rain Light Freezing Rain
5:34 AM 30.2 °F 19.3 °F 28.4 °F 93% 29.77 in 7.0 mi East 15.0 mph - 0.01 in   Overcast
5:54 AM 30.9 °F 20.2 °F 28.0 °F 89% 29.78 in 7.0 mi East 15.0 mph - 0.01 in   Overcast
6:54 AM 32.0 °F 23.0 °F 28.9 °F 88% 29.74 in 7.0 mi East 11.5 mph - N/A   Overcast
7:54 AM 32.0 °F 23.0 °F 28.9 °F 88% 29.73 in 6.0 mi East 11.5 mph - 0.00 in   Overcast
8:24 AM 32.0 °F 23.0 °F 30.2 °F 93% 29.70 in 2.0 mi East 11.5 mph - 0.00 in   Overcast
8:54 AM 32.0 °F 23.6 °F 30.0 °F 92% 29.70 in 2.0 mi East 10.4 mph - 0.00 in   Overcast
9:15 AM 32.0 °F 23.6 °F 30.2 °F 93% 29.68 in 1.2 mi East 10.4 mph - 0.00 in   Overcast
9:54 AM 33.1 °F 24.4 °F 32.0 °F 96% 29.68 in 1.0 mi East 11.5 mph - 0.00 in   Overcast
10:54 AM 34.0 °F 26.6 °F 32.0 °F 92% 29.67 in 2.0 mi East 9.2 mph - 0.02 in   Overcast
11:01 AM 33.8 °F 27.0 °F 32.0 °F 93% 29.65 in 1.8 mi East 8.1 mph - N/A   Overcast
11:27 AM 33.8 °F 27.0 °F 33.8 °F 100% 29.65 in 3.0 mi ESE 8.1 mph - N/A   Overcast
11:54 AM 35.1 °F 31.0 °F 34.0 °F 96% 29.67 in 6.0 mi SSE 4.6 mph - N/A   Overcast
12:54 PM 36.0 °F - 34.0 °F 93% 29.64 in 5.0 mi Calm Calm - N/A   Overcast
1:54 PM 37.9 °F 33.5 °F 36.0 °F 93% 29.62 in 5.0 mi SSW 5.8 mph - N/A   Overcast
2:54 PM 37.9 °F 28.9 °F 36.0 °F 93% 29.64 in 6.0 mi West 16.1 mph 21.9 mph N/A   Overcast
3:54 PM 37.9 °F 27.9 °F 34.0 °F 86% 29.65 in 10.0 mi West 19.6 mph 26.5 mph N/A   Overcast
4:54 PM 37.0 °F 26.2 °F 32.0 °F 82% 29.67 in 10.0 mi West 21.9 mph 31.1 mph N/A   Overcast
5:01 PM 37.4 °F 27.8 °F 32.0 °F 81% 29.66 in 10.0 mi WNW 17.3 mph 27.6 mph N/A   Overcast
5:26 PM 37.4 °F 28.5 °F 33.8 °F 87% 29.67 in 10.0 mi West 15.0 mph 23.0 mph N/A   Overcast
5:54 PM 37.0 °F 27.4 °F 32.0 °F 82% 29.71 in 10.0 mi WNW 17.3 mph 23.0 mph N/A   Overcast
6:54 PM 37.0 °F 28.9 °F 33.1 °F 86% 29.73 in 10.0 mi West 12.7 mph - N/A   Overcast
7:08 PM 37.4 °F 28.9 °F 33.8 °F 87% 29.72 in 10.0 mi West 13.8 mph 19.6 mph N/A   Overcast
7:54 PM 37.9 °F 30.0 °F 32.0 °F 79% 29.75 in 10.0 mi West 12.7 mph 24.2 mph N/A   Overcast
8:34 PM 37.4 °F 29.3 °F 32.0 °F 81% 29.76 in 10.0 mi West 12.7 mph - N/A   Overcast
8:54 PM 37.0 °F 30.4 °F 32.0 °F 82% 29.78 in 10.0 mi West 9.2 mph - N/A   Overcast
9:27 PM 37.4 °F 27.8 °F 30.2 °F 75% 29.78 in 10.0 mi WNW 17.3 mph 25.3 mph N/A   Overcast
9:54 PM 35.1 °F 23.5 °F 28.0 °F 76% 29.81 in 10.0 mi NW 21.9 mph 32.2 mph N/A   Overcast
10:54 PM 30.9 °F 19.1 °F 21.9 °F 69% 29.85 in 10.0 mi WNW 18.4 mph 28.8 mph N/A   Overcast
11:54 PM 28.0 °F 17.0 °F 19.9 °F 72% 29.87 in 10.0 mi West 13.8 mph - N/A   Scattered Clouds